INTELSAT 33E DEB, 64398

Orbit data source: Space-Track

INTELSAT 33E DEB, 64398 is space debris in GEO originally from a launch on Wed, 24 Aug 2016 UTC launched from the French Guiana (FRGUI). Debris objects in space refer to the collection of defunct objects orbiting the Earth. Examples of debris include non-operational satellites, rocket bodies, and fragments generated from explosions, collisions, or faulty payload assembly.

Loading next visibility...
Identifier
64398, 2016-053AC
Orbit
GEO
Country
Flag of USUS / ITSO
Related business
Manufacturer
Boeing/ES
Mission
Spacecraft
Bus & Motor
Unknown
Mass
Unknown
Launch date (UTC)
2016-08-24 (10 years ago)
Launch vehicle
Unknown
Launch site
French Guiana (FRGUI)
Object type
Payload
Rocket body
Debris
Shape & HBR
Unknown shape, 1.1 m
Radar Cross Section
RCS unknown

Expand to show TLE details & history
Last TLE update: 1 week ago

TLE from 1 week ago
0 INTELSAT 33E DEB
1 64398U 16053AC  26219.50695110 -.00000290  00000-0  00000-0 0  9994
2 64398   1.5147  55.0138 0100647 337.1683  22.6582  1.00978460  6535
Epoch: 2026-08-07T12:10Z
TLE epoch observation values (Epoch: 2026-08-07T12:10:00.575Z)
Latitude
Longitude
-83.24176°
Altitude
35,201.765 km
Speed
3.111 km/s
True Right ascension
03h 41m 10s
True Declination
0° 00' 00"
Sunlit
Object was in daylight at epoch
Visualization orbit readout
Latitude
Unknown
Longitude
Unknown
Altitude
Unknown
Speed
Unknown
Apparent Right ascension
Unknown
Apparent Declination
Unknown
Sunlit
N/A
Visualization observer readout
Local Sidereal Time
16:00:00
Azimuth
Unknown
Elevation
Unknown
Doppler factor
Unknown
Orbital elements
Apogee altitude
36,013.123 km
Perigee altitude
35,168.315 km
Semi-major axis
41,968.856 km
Eccentricity
0.01006
Inclination
1.5147°
RAAN
55.0138°
Arg. of periapsis
337.1683°
True anomaly
23.10771°
Mean anomaly
22.6582°
Eccentric anomaly
22.88243°
Mean motion
0.25244 °/min
Orbital period
1,426.1 mins
BSTAR
0
Loading maneuver chart data...
Computing Atmospheric mass density...
Loading historical data...
Loading historical data...
Loading historical data...
Loading historical data...
Loading historical data...
Loading historical data...
Loading historical data...

Documentation

Showing up to 5 results
|